College Station, TX

12:51 AM CST on February 24, 2018 (GMT -0600)
Easterwood

Weather History for KCLL - January, 2014

Change the Weather History Date:

Monday, January 20, 2014

  Actual Average Record
Temperature  
Mean Temperature 60 °F 51 °F  
Max Temperature 76 °F 61 °F 81 °F (1954)
Min Temperature 44 °F 41 °F 19 °F (1935)
Degree Days  
Heating Degree Days 5 14  
Month to date heating degree days 307 293  
Since 1 July heating degree days 1125 929  
Cooling Degree Days 0 0  
Month to date cooling degree days 0 0  
Year to date cooling degree days 0 0  
Growing Degree Days 10 (Base 50)    
Moisture  
Dew Point 48 °F    
Average Humidity 68    
Maximum Humidity 100    
Minimum Humidity 36    
Precipitation  
Precipitation 0.00 in 0.11 in 1.31 in (1935)
Month to date precipitation 1.02 2.07  
Year to date precipitation 1.02 2.07  
Sea Level Pressure  
Sea Level Pressure 30.00 in    
Wind  
Wind Speed 10 mph (SSW)    
Max Wind Speed 22 mph    
Max Gust Speed 26 mph    
Visibility 7 miles    
Events Fog    
T = Trace of Precipitation, MM = Missing Value Source: NWS Daily Summary

Daily Weather History Graph

Daily Weather History Graph

Search for Another Location

Airport or City:

Trip Planner

Search our weather history database for the weather conditions in past years. The results will help you decide how hot, cold, wet, or windy it might be!

Date:

Astronomy

Jan. 20, 2014 Rise Set
Actual Time 7:22 AM CST 5:51 PM CST
Civil Twilight 6:56 AM CST 6:16 PM CST
Nautical Twilight 6:27 AM CST 6:46 PM CST
Astronomical Twilight 5:58 AM CST 7:15 PM CST
Moon 10:05 PM CST (1/20) 9:42 AM CST (1/20)
Length of Visible Light 11h 20m
Length of Day
10h 29m
Waning Gibbous, 82% of the Moon is Illuminated
Jan 20
Waning Gibbous
Jan 23
Last Quarter
Jan 30
New
Feb 6
First Quarter
Feb 14
Full

Hourly Weather History & Observations

Time (CST) Temp. Windchill Dew Point Humidity Pressure Visibility Wind Dir Wind Speed Gust Speed Precip Events Conditions
12:53 AM 45.0 °F 42.6 °F 30.0 °F 56% 30.10 in 10.0 mi South 4.6 mph - N/A   Clear
1:53 AM 46.0 °F 41.9 °F 33.1 °F 61% 30.08 in 10.0 mi South 8.1 mph - N/A   Clear
2:53 AM 46.9 °F - 37.9 °F 71% 30.07 in 10.0 mi South 6.9 mph - N/A   Clear
3:53 AM 46.0 °F 43.1 °F 41.0 °F 83% 30.06 in 10.0 mi South 5.8 mph - N/A   Clear
4:53 AM 45.0 °F 41.8 °F 43.0 °F 93% 30.04 in 10.0 mi South 5.8 mph - N/A   Clear
5:18 AM 46.4 °F 42.9 °F 44.6 °F 93% 30.04 in 5.0 mi South 6.9 mph - N/A   Partly Cloudy
5:31 AM 48.2 °F - 46.4 °F 93% 30.04 in 2.0 mi South 5.8 mph - N/A   Mostly Cloudy
5:39 AM 48.2 °F - 48.2 °F 100% 30.03 in 0.8 mi South 5.8 mph - N/A   Mostly Cloudy
5:53 AM 48.0 °F - 48.0 °F 100% 30.03 in 0.2 mi SSW 6.9 mph - N/A Fog Fog
6:53 AM 50.0 °F - 50.0 °F 100% 30.03 in 0.2 mi South 3.5 mph - N/A Fog Fog
7:32 AM 51.8 °F - 51.8 °F 100% 30.03 in 0.5 mi South 5.8 mph - N/A Fog Fog
7:42 AM 51.8 °F - 51.8 °F 100% 30.03 in 0.2 mi South 4.6 mph - N/A Fog Fog
7:53 AM 52.0 °F - 52.0 °F 100% 30.04 in 0.2 mi South 5.8 mph - N/A Fog Fog
8:29 AM 53.6 °F - 53.6 °F 100% 30.03 in 0.8 mi SSW 6.9 mph - N/A   Mist
8:53 AM 54.0 °F - 54.0 °F 100% 30.02 in 1.0 mi SSW 10.4 mph - N/A   Overcast
9:11 AM 55.4 °F - 55.4 °F 100% 30.03 in 2.0 mi SSW 11.5 mph - N/A   Overcast
9:23 AM 55.4 °F - 55.4 °F 100% 30.03 in 3.0 mi SW 12.7 mph - N/A   Overcast
9:53 AM 55.9 °F - 55.0 °F 97% 30.03 in 6.0 mi SSW 12.7 mph - N/A   Mostly Cloudy
10:07 AM 55.4 °F - 55.4 °F 100% 30.03 in 8.0 mi SW 11.5 mph - N/A   Partly Cloudy
10:53 AM 63.0 °F - 55.0 °F 75% 30.02 in 10.0 mi SSW 12.7 mph - N/A   Clear
11:53 AM 66.9 °F - 54.0 °F 63% 29.99 in 10.0 mi SSW 17.3 mph - N/A   Clear
12:53 PM 71.1 °F - 52.0 °F 51% 29.92 in 10.0 mi SW 21.9 mph - N/A   Clear
1:53 PM 73.9 °F - 52.0 °F 46% 29.88 in 10.0 mi SSW 18.4 mph 23.0 mph N/A   Clear
2:53 PM 75.0 °F - 51.1 °F 43% 29.86 in 10.0 mi SSW 15.0 mph 21.9 mph N/A   Clear
3:53 PM 75.0 °F - 50.0 °F 41% 29.86 in 10.0 mi SSW 16.1 mph - N/A   Clear
4:53 PM 73.9 °F - 51.1 °F 45% 29.88 in 10.0 mi SSW 6.9 mph - N/A   Clear
5:53 PM 70.0 °F - 51.1 °F 51% 29.89 in 10.0 mi SSW 5.8 mph - N/A   Clear
6:53 PM 66.0 °F - 50.0 °F 56% 29.91 in 10.0 mi South 3.5 mph - N/A   Clear
7:53 PM 59.0 °F - 50.0 °F 72% 29.94 in 10.0 mi South 3.5 mph - N/A   Clear
8:53 PM 64.0 °F - 46.0 °F 52% 29.98 in 10.0 mi NNW 13.8 mph - N/A   Clear
9:53 PM 63.0 °F - 36.0 °F 37% 30.02 in 10.0 mi NNW 15.0 mph - N/A   Clear
10:53 PM 60.1 °F - 37.0 °F 42% 30.06 in 10.0 mi North 12.7 mph - N/A   Clear
11:53 PM 59.0 °F - 36.0 °F 42% 30.09 in 10.0 mi North 15.0 mph - N/A   Clear